Tracking 31011 objects as of 12-Jul-2025
HD Live streaming from Space Station
objects crossing your sky now

STARLINK-4027

Track STARLINK-4027 now!
10-day predictions
STARLINK-4027 is classified as:


NORAD ID: 52601
Int'l Code: 2022-052D
Perigee: 546.1 km
Apogee: 547.7 km
Inclination: 53.2 °
Period: 95.4 minutes
Semi major axis: 6917 km
RCS: Unknown
Launch date: May 14, 2022
Source: United States (US)
Launch site: AIR FORCE EASTERN TEST RANGE (AFETR)
Your satellite tracking list
Your tracking list is empty




NASA's NSSDC Master Catalog

Two Line Element Set (TLE):
1 52601U 22052D   25192.55299147  .00000035  00000-0  20316-4 0  9990
2 52601  53.2170 281.6255 0001140  90.5176 269.5947 15.08832135175255
Source of the keplerian elements: AFSPC